Madison, SD

11:14 PM CST on November 16, 2019 (GMT -0600)
Madison Municipal

Weather History for KMDS - October, 2019

Change the Weather History Date:

Wednesday, October 23, 2019

  Actual Average Record
Temperature  
Mean Temperature 34 °F -  
Max Temperature 37 °F 58 °F 68 °F (2014)
Min Temperature 32 °F 34 °F 24 °F (2018)
Degree Days  
Heating Degree Days 30    
Moisture  
Dew Point 34 °F    
Average Humidity 98    
Maximum Humidity 100    
Minimum Humidity 81    
Precipitation  
Precipitation 0.36 in - - ()
Sea Level Pressure  
Sea Level Pressure 29.95 in    
Wind  
Wind Speed 6 mph ()    
Max Wind Speed 18 mph    
Max Gust Speed 25 mph    
Visibility 9.8 miles    
Events Rain , Snow    
Averages and records for this station are not official NWS values.
T = Trace of Precipitation, MM = Missing Value Source: Averaged Metar Reports

Daily Weather History Graph

Daily Weather History Graph

Search for Another Location

Airport or City:

Astronomy

Oct. 23, 2019 Rise Set
Actual Time 7:52 AM CDT 6:31 PM CDT
Civil Twilight 7:23 AM CDT 7:01 PM CDT
Nautical Twilight 6:49 AM CDT 7:34 PM CDT
Astronomical Twilight 6:16 AM CDT 8:08 PM CDT
Moon 1:57 AM CDT (10/23) 4:36 PM CDT (10/23)
Length of Visible Light 11h 37m
Length of Day
10h 38m
Waning Crescent, 26% of the Moon is Illuminated
Oct 23
Waning Crescent
Oct 27
New
Nov 4
First Quarter
Nov 12
Full
Nov 19
Last Quarter

Hourly Weather History & Observations

Time (CDT) Temp. Windchill Dew Point Humidity Pressure Visibility Wind Dir Wind Speed Gust Speed Precip Events Conditions
12:15 AM 32.0 °F 28.7 °F 32.0 °F 100% 29.78 in 10.0 mi North 3.5 mph - N/A   Clear
12:35 AM 32.0 °F 28.7 °F 32.0 °F 100% 29.78 in 10.0 mi NE 3.5 mph - N/A   Clear
12:40 AM 32.0 °F 28.7 °F 32.0 °F 100% 29.77 in 10.0 mi NE 3.5 mph - N/A   Clear
12:55 AM 32.0 °F - 32.0 °F 100% 29.77 in 10.0 mi Calm Calm - N/A   Partly Cloudy
1:00 AM 32.0 °F - 32.0 °F 100% 29.78 in 10.0 mi Calm Calm - N/A   Partly Cloudy
1:15 AM 32.0 °F - 32.0 °F 100% 29.78 in 10.0 mi Calm Calm - N/A   Mostly Cloudy
1:35 AM 32.0 °F 27.5 °F 32.0 °F 100% 29.78 in 10.0 mi ENE 4.6 mph - N/A   Overcast
1:55 AM 32.0 °F - 32.0 °F 100% 29.79 in 10.0 mi Calm Calm - N/A   Overcast
2:00 AM 32.0 °F - 32.0 °F 100% 29.79 in 10.0 mi Calm Calm - N/A   Overcast
2:15 AM 33.8 °F - 32.0 °F 93% 29.78 in 10.0 mi Calm Calm - N/A   Overcast
2:20 AM 33.8 °F - 32.0 °F 93% 29.78 in 10.0 mi Calm Calm - N/A   Overcast
2:35 AM 32.0 °F 27.5 °F 32.0 °F 100% 29.79 in 10.0 mi SSW 4.6 mph - N/A   Overcast
2:55 AM 32.0 °F 27.5 °F 32.0 °F 100% 29.80 in 10.0 mi SSW 4.6 mph - N/A   Overcast
3:00 AM 32.0 °F 27.5 °F 32.0 °F 100% 29.80 in 10.0 mi SSW 4.6 mph - N/A   Overcast
3:15 AM 32.0 °F 28.7 °F 32.0 °F 100% 29.80 in 10.0 mi South 3.5 mph - N/A   Overcast
3:20 AM 32.0 °F - 32.0 °F 100% 29.80 in 10.0 mi Calm Calm - N/A   Overcast
3:35 AM 32.0 °F - 32.0 °F 100% 29.79 in 10.0 mi Calm Calm - N/A   Overcast
3:40 AM 32.0 °F - 32.0 °F 100% 29.80 in 10.0 mi Calm Calm - N/A   Overcast
3:55 AM 33.8 °F - 33.8 °F 100% 29.80 in 10.0 mi Calm Calm - N/A   Overcast
4:00 AM 32.0 °F - 32.0 °F 100% 29.80 in 10.0 mi Calm Calm - N/A   Overcast
4:15 AM 32.0 °F - 32.0 °F 100% 29.80 in 10.0 mi Calm Calm - N/A   Overcast
4:20 AM 32.0 °F 28.7 °F 32.0 °F 100% 29.80 in 10.0 mi ENE 3.5 mph - N/A   Overcast
4:35 AM 32.0 °F 27.5 °F 32.0 °F 100% 29.79 in 10.0 mi ENE 4.6 mph - N/A   Overcast
4:40 AM 32.0 °F 27.5 °F 32.0 °F 100% 29.79 in 10.0 mi ENE 4.6 mph - N/A   Overcast
4:55 AM 32.0 °F 26.4 °F 32.0 °F 100% 29.79 in 10.0 mi ENE 5.8 mph - N/A   Overcast
5:15 AM 33.8 °F 29.6 °F 33.8 °F 100% 29.79 in 10.0 mi ENE 4.6 mph - N/A   Overcast
5:20 AM 33.8 °F 28.6 °F 33.8 °F 100% 29.79 in 10.0 mi ENE 5.8 mph - N/A   Overcast
5:35 AM 33.8 °F 29.6 °F 33.8 °F 100% 29.80 in 10.0 mi ENE 4.6 mph - N/A   Overcast
5:55 AM 33.8 °F 27.0 °F 33.8 °F 100% 29.79 in 10.0 mi ENE 8.1 mph - N/A   Overcast
6:15 AM 33.8 °F 26.4 °F 33.8 °F 100% 29.80 in 10.0 mi ENE 9.2 mph - N/A   Overcast
6:20 AM 33.8 °F 25.8 °F 33.8 °F 100% 29.79 in 10.0 mi NE 10.4 mph - N/A   Overcast
6:35 AM 33.8 °F 25.8 °F 33.8 °F 100% 29.79 in 10.0 mi NE 10.4 mph - N/A   Overcast
6:55 AM 35.6 °F 29.9 °F 35.6 °F 100% 29.80 in 10.0 mi ENE 6.9 mph - N/A   Overcast
7:00 AM 35.6 °F 29.9 °F 35.6 °F 100% 29.80 in 10.0 mi ENE 6.9 mph - N/A   Overcast
7:15 AM 35.6 °F 32.8 °F 35.6 °F 100% 29.81 in 10.0 mi East 3.5 mph - N/A   Overcast
7:20 AM 33.8 °F - 33.8 °F 100% 29.81 in 10.0 mi Calm Calm - N/A   Overcast
7:35 AM 33.8 °F 30.8 °F 33.8 °F 100% 29.82 in 10.0 mi NNE 3.5 mph - N/A   Overcast
7:55 AM 33.8 °F 30.8 °F 33.8 °F 100% 29.82 in 10.0 mi SSE 3.5 mph - N/A   Overcast
8:15 AM 35.6 °F - 35.6 °F 100% 29.83 in 10.0 mi Calm Calm - N/A   Overcast
8:35 AM 35.6 °F 28.6 °F 35.6 °F 100% 29.84 in 10.0 mi NNE 9.2 mph - N/A   Overcast
8:55 AM 35.6 °F 29.9 °F 35.6 °F 100% 29.85 in 10.0 mi NE 6.9 mph - N/A   Overcast
9:00 AM 35.6 °F 29.2 °F 35.6 °F 100% 29.85 in 10.0 mi NE 8.1 mph - N/A   Overcast
9:15 AM 35.6 °F 28.6 °F 35.6 °F 100% 29.86 in 10.0 mi NE 9.2 mph - N/A Rain Light Rain
9:20 AM 35.6 °F 28.6 °F 35.6 °F 100% 29.86 in 10.0 mi ENE 9.2 mph - N/A Rain Light Rain
9:35 AM 35.6 °F 28.0 °F 35.6 °F 100% 29.87 in 10.0 mi NE 10.4 mph - N/A Rain Light Rain
9:40 AM 35.6 °F 28.0 °F 35.6 °F 100% 29.87 in 10.0 mi NE 10.4 mph - N/A Rain Light Rain
9:55 AM 35.6 °F 29.2 °F 35.6 °F 100% 29.88 in 10.0 mi NE 8.1 mph - 0.01 in Rain Light Rain
10:00 AM 35.6 °F 29.2 °F 35.6 °F 100% 29.88 in 10.0 mi NE 8.1 mph - 0.01 in Rain Light Rain
10:15 AM 35.6 °F 30.7 °F 35.6 °F 100% 29.89 in 10.0 mi NE 5.8 mph - N/A Rain Light Rain
10:20 AM 35.6 °F 29.9 °F 35.6 °F 100% 29.89 in 10.0 mi NNE 6.9 mph - 0.01 in Rain Light Rain
10:35 AM 35.6 °F 28.0 °F 35.6 °F 100% 29.90 in 10.0 mi North 10.4 mph - 0.02 in Rain Light Rain
10:55 AM 33.8 °F 25.8 °F 33.8 °F 100% 29.91 in 10.0 mi North 10.4 mph - 0.02 in Snow Light Snow
11:15 AM 32.0 °F 23.6 °F 32.0 °F 100% 29.91 in 2.0 mi North 10.4 mph 18.4 mph 0.07 in Snow Light Snow
11:20 AM 32.0 °F 23.0 °F 32.0 °F 100% 29.91 in 1.8 mi NNE 11.5 mph 17.3 mph 0.11 in Snow Light Snow
11:35 AM 32.0 °F 24.2 °F 32.0 °F 100% 29.91 in 5.0 mi NNE 9.2 mph - 0.15 in Snow Light Snow
11:40 AM 32.0 °F 24.2 °F 32.0 °F 100% 29.91 in 8.0 mi NNE 9.2 mph - 0.16 in Snow Light Snow
11:55 AM 33.8 °F 26.4 °F 33.8 °F 100% 29.92 in 10.0 mi NNE 9.2 mph - 0.16 in Rain Light Rain
12:00 PM 35.6 °F 29.2 °F 35.6 °F 100% 29.92 in 10.0 mi NNE 8.1 mph - 0.16 in   Mostly Cloudy
12:15 PM 37.4 °F 30.8 °F 37.4 °F 100% 29.92 in 10.0 mi NNE 9.2 mph - N/A   Overcast
12:35 PM 37.4 °F 29.3 °F 35.6 °F 93% 29.92 in 10.0 mi NNE 12.7 mph - N/A   Overcast
12:55 PM 35.6 °F 28.0 °F 35.6 °F 100% 29.93 in 10.0 mi NE 10.4 mph - N/A   Overcast
1:00 PM 35.6 °F 29.2 °F 35.6 °F 100% 29.93 in 10.0 mi NNE 8.1 mph - N/A   Overcast
1:15 PM 35.6 °F 29.9 °F 35.6 °F 100% 29.93 in 10.0 mi NNE 6.9 mph - N/A   Overcast
1:35 PM 35.6 °F 30.7 °F 35.6 °F 100% 29.94 in 10.0 mi North 5.8 mph - N/A   Overcast
1:40 PM 35.6 °F 29.2 °F 35.6 °F 100% 29.94 in 10.0 mi North 8.1 mph - N/A   Overcast
1:55 PM 35.6 °F 29.9 °F 35.6 °F 100% 29.95 in 10.0 mi NNW 6.9 mph - N/A   Overcast
2:00 PM 35.6 °F 29.2 °F 35.6 °F 100% 29.95 in 10.0 mi NNW 8.1 mph - N/A   Overcast
2:15 PM 37.4 °F 31.4 °F 37.4 °F 100% 29.96 in 10.0 mi NNW 8.1 mph - N/A   Overcast
2:35 PM 37.4 °F 30.3 °F 37.4 °F 100% 29.96 in 10.0 mi NNW 10.4 mph - N/A   Overcast
2:55 PM 37.4 °F 30.3 °F 37.4 °F 100% 29.97 in 10.0 mi NNW 10.4 mph - N/A   Mostly Cloudy
3:00 PM 37.4 °F 29.3 °F 37.4 °F 100% 29.97 in 10.0 mi NNW 12.7 mph - N/A   Mostly Cloudy
3:15 PM 37.4 °F 29.3 °F 37.4 °F 100% 29.98 in 10.0 mi NNW 12.7 mph - N/A   Mostly Cloudy
3:35 PM 37.4 °F 28.9 °F 35.6 °F 93% 29.99 in 10.0 mi NNW 13.8 mph 19.6 mph N/A   Overcast
3:40 PM 37.4 °F 29.3 °F 35.6 °F 93% 30.00 in 10.0 mi North 12.7 mph - N/A Rain Light Rain
3:55 PM 37.4 °F 28.2 °F 35.6 °F 93% 30.01 in 10.0 mi NNW 16.1 mph - N/A Rain Light Rain
4:00 PM 35.6 °F 27.1 °F 35.6 °F 100% 30.01 in 10.0 mi NNW 12.7 mph 18.4 mph N/A Rain Light Rain
4:15 PM 35.6 °F 28.6 °F 35.6 °F 100% 30.02 in 10.0 mi NNW 9.2 mph 17.3 mph N/A Snow Light Snow
4:35 PM 35.6 °F 25.9 °F 35.6 °F 100% 30.04 in 10.0 mi NNW 16.1 mph - N/A Rain Light Rain
4:55 PM 35.6 °F 27.1 °F 35.6 °F 100% 30.05 in 10.0 mi NNW 12.7 mph - N/A Rain Light Rain
5:00 PM 35.6 °F 27.1 °F 35.6 °F 100% 30.05 in 10.0 mi NNW 12.7 mph - 0.01 in Rain Light Rain
5:15 PM 35.6 °F 27.1 °F 35.6 °F 100% 30.06 in 10.0 mi NNW 12.7 mph - N/A Rain Light Rain
5:35 PM 35.6 °F 27.5 °F 35.6 °F 100% 30.07 in 10.0 mi NNW 11.5 mph - N/A   Mostly Cloudy
5:55 PM 35.6 °F 28.0 °F 35.6 °F 100% 30.08 in 10.0 mi NNW 10.4 mph - N/A   Mostly Cloudy
6:00 PM 35.6 °F 26.6 °F 35.6 °F 100% 30.09 in 10.0 mi NNW 13.8 mph - N/A   Mostly Cloudy
6:15 PM 35.6 °F 27.1 °F 35.6 °F 100% 30.10 in 10.0 mi NNW 12.7 mph 18.4 mph N/A   Overcast
6:35 PM 35.6 °F 26.6 °F 33.8 °F 93% 30.11 in 10.0 mi NNW 13.8 mph - N/A   Overcast
6:55 PM 33.8 °F 24.8 °F 32.0 °F 93% 30.12 in 10.0 mi NNW 12.7 mph 17.3 mph N/A   Overcast
7:00 PM 33.8 °F 23.9 °F 32.0 °F 93% 30.13 in 10.0 mi NNW 15.0 mph - N/A   Overcast
7:15 PM 33.8 °F 24.3 °F 32.0 °F 93% 30.14 in 10.0 mi NNW 13.8 mph - N/A   Overcast
7:20 PM 33.8 °F 23.9 °F 32.0 °F 93% 30.15 in 10.0 mi NNW 15.0 mph - N/A   Overcast
7:35 PM 33.8 °F 24.3 °F 32.0 °F 93% 30.15 in 10.0 mi NNW 13.8 mph 18.4 mph N/A   Overcast
7:40 PM 33.8 °F 24.8 °F 33.8 °F 100% 30.16 in 10.0 mi NNW 12.7 mph 18.4 mph N/A   Overcast
7:55 PM 33.8 °F 24.3 °F 32.0 °F 93% 30.17 in 10.0 mi NNW 13.8 mph - N/A   Overcast
8:00 PM 33.8 °F 22.8 °F 32.0 °F 93% 30.17 in 10.0 mi NNW 18.4 mph - N/A   Overcast
8:15 PM 32.0 °F 23.0 °F 32.0 °F 100% 30.18 in 10.0 mi NNW 11.5 mph 25.3 mph N/A   Overcast
8:35 PM 32.0 °F 23.0 °F 32.0 °F 100% 30.19 in 10.0 mi NNW 11.5 mph - N/A   Overcast
8:40 PM 32.0 °F 22.5 °F 32.0 °F 100% 30.19 in 10.0 mi NNW 12.7 mph - N/A   Overcast
8:55 PM 32.0 °F 23.6 °F 32.0 °F 100% 30.20 in 10.0 mi NNW 10.4 mph - N/A   Overcast
9:15 PM 33.8 °F 24.8 °F 32.0 °F 93% 30.20 in 10.0 mi NNW 12.7 mph - N/A   Overcast
9:20 PM 33.8 °F 25.8 °F 32.0 °F 93% 30.20 in 10.0 mi NW 10.4 mph - N/A   Overcast
9:35 PM 32.0 °F 23.6 °F 32.0 °F 100% 30.21 in 10.0 mi NNW 10.4 mph - N/A   Overcast
9:55 PM 32.0 °F 24.2 °F 32.0 °F 100% 30.22 in 10.0 mi NW 9.2 mph - N/A   Overcast
10:00 PM 32.0 °F 23.6 °F 32.0 °F 100% 30.22 in 10.0 mi NNW 10.4 mph - N/A   Overcast
10:15 PM 33.8 °F 25.3 °F 32.0 °F 93% 30.22 in 10.0 mi NNW 11.5 mph - N/A   Overcast
10:35 PM 33.8 °F 25.3 °F 32.0 °F 93% 30.23 in 10.0 mi NNW 11.5 mph - N/A   Overcast
10:40 PM 33.8 °F 24.8 °F 32.0 °F 93% 30.23 in 10.0 mi NNW 12.7 mph - N/A   Overcast
10:55 PM 33.8 °F 25.3 °F 32.0 °F 93% 30.23 in 10.0 mi NNW 11.5 mph 17.3 mph N/A   Overcast
11:15 PM 32.0 °F 23.0 °F 32.0 °F 100% 30.23 in 10.0 mi NNW 11.5 mph - N/A   Overcast
11:20 PM 32.0 °F 22.5 °F 32.0 °F 100% 30.23 in 10.0 mi NNW 12.7 mph - N/A   Overcast
11:35 PM 32.0 °F 22.1 °F 28.4 °F 87% 30.23 in 10.0 mi NNW 13.8 mph 20.7 mph N/A   Overcast
11:55 PM 33.8 °F 24.8 °F 28.4 °F 81% 30.23 in 10.0 mi North 12.7 mph - N/A   Overcast